TimeCDT,TemperatureF,Dew PointF,Humidity,Sea Level PressureIn,VisibilityMPH,Wind Direction,Wind SpeedMPH,Gust SpeedMPH,PrecipitationIn,Events,Conditions,WindDirDegrees,DateUTC
12:13 AM,42.8,37.4,81,29.91,10.0,SE,5.8,-,N/A,,Clear,140,2013-05-08 05:13:00
12:34 AM,42.8,35.6,76,29.91,10.0,SE,5.8,-,N/A,,Clear,140,2013-05-08 05:34:00
12:53 AM,42.8,35.6,76,29.91,10.0,SSE,6.9,-,N/A,,Clear,150,2013-05-08 05:53:00
1:13 AM,42.8,37.4,81,29.91,10.0,SSE,5.8,-,N/A,,Clear,150,2013-05-08 06:13:00
1:34 AM,42.8,37.4,81,29.91,10.0,SSE,8.1,-,N/A,,Scattered Clouds,150,2013-05-08 06:34:00
1:53 AM,42.8,37.4,81,29.91,10.0,SSE,6.9,-,N/A,,Mostly Cloudy,160,2013-05-08 06:53:00
2:13 AM,41.0,37.4,87,29.91,10.0,South,5.8,-,N/A,,Mostly Cloudy,170,2013-05-08 07:13:00
2:34 AM,41.0,37.4,87,29.91,10.0,South,4.6,-,N/A,,Mostly Cloudy,170,2013-05-08 07:34:00
2:53 AM,42.8,37.4,81,29.91,10.0,Calm,Calm,-,N/A,,Mostly Cloudy,0,2013-05-08 07:53:00
3:14 AM,42.8,37.4,81,29.91,10.0,Calm,Calm,-,N/A,,Overcast,0,2013-05-08 08:14:00
3:33 AM,42.8,37.4,81,29.91,10.0,South,3.5,-,N/A,,Overcast,170,2013-05-08 08:33:00
3:54 AM,42.8,37.4,81,29.91,10.0,Calm,Calm,-,N/A,,Overcast,0,2013-05-08 08:54:00
4:13 AM,44.6,39.2,81,29.91,10.0,Calm,Calm,-,N/A,,Overcast,0,2013-05-08 09:13:00
4:33 AM,42.8,39.2,87,29.91,10.0,Calm,Calm,-,N/A,,Overcast,0,2013-05-08 09:33:00
4:54 AM,44.6,39.2,81,29.92,10.0,North,5.8,-,N/A,,Scattered Clouds,360,2013-05-08 09:54:00
5:13 AM,44.6,39.2,81,29.92,10.0,Calm,Calm,-,N/A,,Clear,0,2013-05-08 10:13:00
5:54 AM,44.6,39.2,81,29.93,10.0,Calm,Calm,-,N/A,,Clear,0,2013-05-08 10:54:00
6:13 AM,42.8,37.4,81,29.93,10.0,Calm,Calm,-,N/A,,Clear,0,2013-05-08 11:13:00
6:33 AM,41.0,37.4,87,29.94,10.0,North,3.5,-,N/A,,Clear,350,2013-05-08 11:33:00
6:54 AM,39.2,35.6,87,29.95,10.0,NW,4.6,-,N/A,,Clear,320,2013-05-08 11:54:00
7:13 AM,41.0,37.4,87,29.96,10.0,NNW,4.6,-,N/A,,Clear,330,2013-05-08 12:13:00
7:33 AM,39.2,37.4,93,29.97,10.0,NNW,4.6,-,N/A,,Clear,330,2013-05-08 12:33:00
7:54 AM,42.8,39.2,87,29.98,10.0,NW,8.1,-,N/A,,Clear,310,2013-05-08 12:54:00
8:13 AM,46.4,41.0,81,29.99,10.0,North,12.7,-,N/A,,Clear,350,2013-05-08 13:13:00
8:33 AM,44.6,39.2,81,30.01,10.0,North,11.5,-,N/A,,Scattered Clouds,360,2013-05-08 13:33:00
8:54 AM,44.6,37.4,76,30.01,10.0,North,16.1,-,N/A,,Clear,360,2013-05-08 13:54:00
9:13 AM,44.6,37.4,76,30.02,10.0,North,16.1,-,N/A,,Clear,360,2013-05-08 14:13:00
9:33 AM,44.6,37.4,76,30.03,10.0,North,13.8,-,N/A,,Clear,360,2013-05-08 14:33:00
9:54 AM,46.4,35.6,66,30.03,10.0,North,12.7,-,N/A,,Clear,360,2013-05-08 14:54:00
10:13 AM,44.6,35.6,71,30.04,10.0,North,13.8,-,N/A,,Clear,360,2013-05-08 15:13:00
10:33 AM,44.6,35.6,71,30.05,10.0,North,16.1,-,N/A,,Clear,360,2013-05-08 15:33:00
10:54 AM,48.2,35.6,62,30.04,10.0,North,16.1,-,N/A,,Scattered Clouds,10,2013-05-08 15:54:00
11:13 AM,46.4,35.6,66,30.05,10.0,North,15.0,-,N/A,,Scattered Clouds,360,2013-05-08 16:13:00
11:33 AM,48.2,35.6,62,30.06,10.0,North,16.1,-,N/A,,Clear,10,2013-05-08 16:33:00
11:54 AM,48.2,35.6,62,30.06,10.0,NNE,15.0,-,N/A,,Clear,20,2013-05-08 16:54:00
12:13 PM,48.2,35.6,62,30.07,10.0,North,13.8,-,N/A,,Clear,10,2013-05-08 17:13:00
12:34 PM,46.4,35.6,66,30.08,10.0,North,13.8,-,N/A,,Clear,10,2013-05-08 17:34:00
12:53 PM,48.2,35.6,62,30.08,10.0,North,13.8,-,N/A,,Clear,10,2013-05-08 17:53:00
1:13 PM,48.2,35.6,62,30.08,10.0,NNE,16.1,-,N/A,,Clear,20,2013-05-08 18:13:00
1:34 PM,50.0,35.6,58,30.08,10.0,NNE,15.0,-,N/A,,Clear,20,2013-05-08 18:34:00
1:53 PM,50.0,35.6,58,30.08,10.0,North,11.5,-,N/A,,Clear,10,2013-05-08 18:53:00
2:14 PM,48.2,35.6,62,30.08,10.0,North,12.7,-,N/A,,Clear,10,2013-05-08 19:14:00
2:33 PM,50.0,35.6,58,30.09,10.0,North,12.7,-,N/A,,Clear,10,2013-05-08 19:33:00
2:54 PM,50.0,35.6,58,30.09,10.0,NNE,13.8,-,N/A,,Clear,20,2013-05-08 19:54:00
3:13 PM,51.8,35.6,54,30.09,10.0,NNE,11.5,-,N/A,,Clear,30,2013-05-08 20:13:00
3:34 PM,51.8,35.6,54,30.09,10.0,NNE,9.2,-,N/A,,Clear,20,2013-05-08 20:34:00
3:54 PM,51.8,35.6,54,30.08,10.0,NNE,12.7,-,N/A,,Clear,20,2013-05-08 20:54:00
4:13 PM,53.6,35.6,51,30.08,10.0,NNE,13.8,-,N/A,,Clear,20,2013-05-08 21:13:00
4:33 PM,53.6,35.6,51,30.08,10.0,NNE,15.0,-,N/A,,Clear,20,2013-05-08 21:33:00
4:54 PM,53.6,35.6,51,30.08,10.0,NNE,12.7,-,N/A,,Clear,30,2013-05-08 21:54:00
5:13 PM,53.6,33.8,47,30.08,10.0,NNE,12.7,-,N/A,,Clear,20,2013-05-08 22:13:00
5:33 PM,53.6,35.6,51,30.08,10.0,NNE,12.7,-,N/A,,Clear,30,2013-05-08 22:33:00
5:54 PM,53.6,33.8,47,30.08,10.0,NNE,12.7,-,N/A,,Clear,20,2013-05-08 22:54:00
6:13 PM,53.6,33.8,47,30.09,10.0,NNE,13.8,-,N/A,,Clear,20,2013-05-08 23:13:00
6:33 PM,51.8,30.2,44,30.09,10.0,NNE,12.7,-,N/A,,Clear,20,2013-05-08 23:33:00
6:54 PM,53.6,30.2,41,30.10,10.0,NNE,12.7,-,N/A,,Clear,30,2013-05-08 23:54:00
7:13 PM,51.8,30.2,44,30.11,10.0,NNE,12.7,-,N/A,,Clear,20,2013-05-09 00:13:00
7:33 PM,51.8,30.2,44,30.11,10.0,NNE,11.5,-,N/A,,Clear,20,2013-05-09 00:33:00
7:53 PM,51.8,30.2,44,30.12,10.0,NNE,11.5,-,N/A,,Clear,20,2013-05-09 00:53:00
8:13 PM,50.0,30.2,47,30.12,10.0,North,10.4,-,N/A,,Clear,10,2013-05-09 01:13:00
8:33 PM,48.2,30.2,50,30.13,10.0,North,9.2,-,N/A,,Clear,10,2013-05-09 01:33:00
8:53 PM,46.4,30.2,53,30.13,10.0,North,8.1,-,N/A,,Clear,360,2013-05-09 01:53:00
9:14 PM,46.4,30.2,53,30.14,10.0,North,10.4,-,N/A,,Clear,10,2013-05-09 02:14:00
9:33 PM,46.4,30.2,53,30.15,10.0,North,9.2,-,N/A,,Clear,10,2013-05-09 02:33:00
9:53 PM,44.6,28.4,53,30.16,10.0,North,9.2,-,N/A,,Clear,10,2013-05-09 02:53:00
10:14 PM,44.6,28.4,53,30.17,10.0,North,11.5,-,N/A,,Clear,10,2013-05-09 03:14:00
10:33 PM,44.6,28.4,53,30.17,10.0,North,11.5,-,N/A,,Clear,10,2013-05-09 03:33:00
10:53 PM,44.6,30.2,57,30.17,10.0,North,9.2,-,N/A,,Clear,10,2013-05-09 03:53:00
11:14 PM,42.8,28.4,57,30.17,10.0,NNE,11.5,-,N/A,,Clear,20,2013-05-09 04:14:00
11:33 PM,42.8,28.4,57,30.18,10.0,NNE,10.4,-,N/A,,Clear,20,2013-05-09 04:33:00
11:53 PM,42.8,28.4,57,30.18,10.0,NNE,10.4,-,N/A,,Clear,20,2013-05-09 04:53:00